Regional Weather Roundup
Issued by NWS

Home | Current Version | Previous Version | Text Only | Print | Product List | Glossary Off
Versions: 1 2 3 4 5 6 7 8 9 10 11 12 13 14 15 16 17 18 19 20 21 22 23 24 25 26 27 28 29 30 31 32 33 34 35 36 37 38 39 40 41 42 43 44 45 46 47 48 49 50

000
ASUS43 KFSD 220002
RWRSD

WEATHER ROUNDUP FOR SOUTH DAKOTA
NATIONAL WEATHER SERVICE SIOUX FALLS SD
600 PM CST SUN DEC 21 2014

NOTE: "FAIR" INDICATES FEW OR NO CLOUDS BELOW 12,000 FEET WITH NO
SIGNIFICANT WEATHER AND/OR OBSTRUCTIONS TO VISIBILITY.


SDZ001>005-009-010-012>017-220100-
NORTHWEST AND NORTH CENTRAL SOUTH DAKOTA

CITY           SKY/WX    TMP DP  RH WIND       PRES   REMARKS
BUFFALO          N/A     37  35  92 W8        29.33R
FAITH            N/A     35  28  75 SW5       29.39R
MOBRIDGE       MOCLDY    30  28  92 E12       29.41R WCI  20
$$

SDZ012>016-024>037-041>051-057-063-072>074-220100-
SOUTHWEST AND SOUTH CENTRAL SOUTH DAKOTA

CITY           SKY/WX    TMP DP  RH WIND       PRES   REMARKS
RAPID CTY ARPT CLOUDY    39  27  62 N8        29.41R
PIERRE         MOCLDY    31  28  89 NE8       29.40S WCI  23
CUSTER         MOCLDY    38  27  64 NW12G22   29.43R
ELLSWORTH AFB  CLOUDY    40  28  61 N6        29.41R
PHILIP         CLOUDY    38  29  70 N9        29.40R
PINE RIDGE     CLOUDY    42  29  59 NW10      29.44R
WINNER         FAIR      42  31  64 S16       29.40S
$$

SDZ004>011-016>023-039-040-220100-
NORTHEAST SOUTH DAKOTA

CITY           SKY/WX    TMP DP  RH WIND       PRES   REMARKS
ABERDEEN       CLOUDY    33  30  88 SE5       29.51S WCI  29
WATERTOWN      CLOUDY    34  33  96 S16       29.52S FOG     WCI  24
SISSETON         N/A     33  33 100 S13       29.54F WCI  24
$$

SDZ017-020-022-023-036>040-048>070-220100-
SOUTHEAST SOUTH DAKOTA

CITY           SKY/WX    TMP DP  RH WIND       PRES   REMARKS
SIOUX FALLS    CLOUDY    38  36  92 S21G32    29.58S
HURON          PTCLDY    35  32  88 S14       29.48F WCI  26
MITCHELL       CLOUDY    36  33  89 S17G30    29.51S
YANKTON        CLOUDY    39  36  87 S16G23    29.58S
$$

ABBREVIATIONS USED IN REMARKS
   TC - TEMPERATURE IN CELSIUS
  WCI - WIND CHILL INDEX
   HX - HEAT INDEX
  VSB - VISIBILITY




USA.gov is the U.S. government's official web portal to all federal, state and local government web resources and services.